This is the latest recevied weather packets stored in our database for station/object OE5RPP. If no packets are shown the sender has not sent any weather packets the latest 10 day(s).
| Time | Temp. | Humidity | Pressure | Rain* | Wind** | Luminosity | Snow |
|---|---|---|---|---|---|---|---|
| 1787838264 | 30° C | 14% | 1018.9 hPa | 0 mm | - | - | - |
| 1787837663 | 30° C | 15% | 1018.9 hPa | 0 mm | - | - | - |
| 1787837063 | 29.44° C | 15% | 1018.9 hPa | 0 mm | - | - | - |
| 1787836465 | 29.44° C | 18% | 1018.9 hPa | 0 mm | - | - | - |
| 1787835864 | 28.89° C | 15% | 1018.9 hPa | 0 mm | - | - | - |
| 1787835264 | 28.89° C | 18% | 1018.9 hPa | 0 mm | - | - | - |
| 1787834665 | 28.33° C | 15% | 1018.9 hPa | 0 mm | - | - | - |
| 1787834064 | 28.33° C | 15% | 1018.9 hPa | 0 mm | - | - | - |
| 1787833464 | 27.78° C | 20% | 1018.9 hPa | 0 mm | - | - | - |
| 1787832863 | 27.78° C | 20% | 1018.9 hPa | 0 mm | - | - | - |
| 1787832264 | 27.22° C | 20% | 1019.9 hPa | 0 mm | - | - | - |
| 1787831662 | 27.78° C | 20% | 1019.9 hPa | 0 mm | - | - | - |
| 1787831063 | 27.22° C | 22% | 1019.9 hPa | 0 mm | - | - | - |
| 1787830462 | 27.22° C | 20% | 1019.9 hPa | 0 mm | - | - | - |
| 1787829862 | 27.22° C | 26% | 1019.9 hPa | 0 mm | - | - | - |
| 1787829263 | 26.11° C | 27% | 1019.9 hPa | 0 mm | - | - | - |
| 1787828662 | 25.56° C | 27% | 1019.9 hPa | 0 mm | - | - | - |
| 1787828062 | 25° C | 27% | 1019.9 hPa | 0 mm | - | - | - |
| 1787827464 | 24.44° C | 29% | 1019.9 hPa | 0 mm | - | - | - |
| 1787826863 | 24.44° C | 27% | 1019.9 hPa | 0 mm | - | - | - |
| 1787826127 | 24.44° C | 29% | 1019.9 hPa | 0 mm | - | - | - |
| 1787825527 | 23.89° C | 29% | 1019.9 hPa | 0 mm | - | - | - |
| 1787824927 | 23.89° C | 30% | 1019.9 hPa | 0 mm | - | - | - |
| 1787824329 | 23.89° C | 30% | 1019.9 hPa | 0 mm | - | - | - |
| 1787823729 | 23.33° C | 31% | 1019.9 hPa | 0 mm | - | - | - |
* Rain latest hour (hover to see other rain measurements)
** Current wind speed in m/s (hover to see current wind gust speed)